RH
98 99 99 99 98 98 98 97 97 96 96 96 96 95 95 94 94 88 68 68 69 84 61 57 50 54 51 57 83 59 68 80 96 100 100 98 100 70 66 50 70 73 100 100 100 100 98 31 35 78 65 54 48 52
94 98 99 100 99 98 98 98 97 97 96 96 96 95 95 95 95 95 91 71 74 93 69 63 50 45 44 44 50 60 65 54 72 93 99 100 100 100 100 94 48 75 62 73 61 65 43 38 44 42 42 49 58 64
92 94 96 99 99 99 98 98 97 97 96 96 96 96 95 96 95 94 89 90 94 100 99 95 74 55 48 50 47 82 82 57 58 54 92 100 100 88 100 92 96 77 57 75 75 53 44 45 46 46 48 61 45 51
91 93 93 96 97 99 99 98 98 97 97 96 96 96 95 95 95 96 98 91 95 100 100 96 61 68 50 48 53 55 58 60 63 79 100 100 100 89 98 82 83 73 75 81 77 58 52 58 55 44 50 48 44 48
90 92 94 95 93 96 99 99 99 98 97 97 97 96 96 95 95 96 98 96 92 96 100 99 80 55 48 49 54 56 62 67 89 100 100 100 96 95 91 91 95 76 78 90 96 67 69 56 41 40 46 54 51 50
90 92 93 96 96 97 98 99 99 99 98 98 97 97 97 96 98 99 100 99 95 99 100 100 84 73 54 57 56 65 66 74 88 100 100 99 76 96 100 96 77 56 55 58 75 59 55 42 40 41 52 49 34 34
89 92 94 95 95 95 96 97 98 98 98 99 99 99 98 99 98 99 98 96 95 96 100 100 100 89 73 70 62 62 67 85 93 100 100 97 91 96 100 97 59 49 48 43 44 47 44 42 48 43 36 30 33 31
90 90 94 95 95 94 94 94 95 96 96 97 97 98 99 98 98 98 99 99 99 99 100 100 100 100 68 99 99 70 94 100 100 99 98 99 81 100 100 60 42 33 31 29 30 36 44 42 38 30 29 31 38 42
92 95 96 95 93 93 93 94 94 95 96 96 95 93 94 96 99 99 98 97 99 99 100 100 100 100 62 81 92 93 94 100 92 100 95 71 86 95 60 41 35 33 35 47 43 41 36 35 34 32 31 35 52 65
94 96 95 94 94 94 94 95 95 96 95 93 81 86 100 100 93 96 94 100 100 100 100 100 94 100 65 99 100 100 100 100 100 88 61 96 76 47 39 35 34 42 41 39 48 48 47 44 37 37 40 48 69 97
95 94 93 93 93 93 92 93 92 90 84 71 97 100 96 91 86 94 100 100 100 100 100 98 88 91 87 99 100 100 100 100 100 66 89 89 74 45 34 38 39 36 35 34 35 35 34 36 38 48 58 66 86 92
94 93 92 90 90 90 87 88 81 68 62 75 81 81 87 99 100 100 100 100 100 86 74 95 83 70 92 87 99 100 100 100 97 76 98 89 49 40 38 36 34 34 35 35 36 39 38 36 44 62 73 81 94 91
89 89 89 89 90 89 88 83 85 87 80 68 91 100 98 100 99 91 89 98 95 95 99 99 98 92 100 99 100 100 100 100 92 100 85 65 50 33 30 30 30 29 43 64 45 44 46 48 60 90 97 99 99 98
88 89 88 89 89 90 89 90 85 74 61 99 100 98 99 98 78 67 75 100 100 100 100 96 98 95 100 100 100 100 82 87 95 84 82 54 39 33 34 38 43 42 85 83 60 60 82 100 100 100 100 100 100 93
87 87 86 86 86 88 92 88 80 60 83 100 100 91 88 75 87 97 100 97 98 93 97 96 96 85 91 94 94 89 89 88 73 66 64 50 47 48 48 49 44 74 96 89 63 84 100 100 100 99 100 95 95 100
85 85 75 85 83 85 91 80 65 68 100 100 100 99 96 99 99 100 100 100 88 90 93 93 94 89 84 84 88 86 71 52 67 80 59 40 41 45 48 62 63 61 64 65 63 72 80 100 100 96 93 98 100 100
82 70 83 84 85 87 80 63 74 100 99 100 96 93 96 99 100 100 100 90 72 95 96 86 88 77 48 69 70 52 69 78 73 62 49 44 48 51 53 56 70 76 68 66 70 74 73 86 100 99 89 76 89 96
68 69 84 84 76 76 67 72 97 95 95 76 81 96 83 90 100 100 97 84 96 77 65 76 52 66 70 57 62 69 61 60 58 58 48 45 48 52 53 58 62 62 65 76 100 98 98 100 96 68 70 68 88 95
59 61 82 82 76 74 84 99 80 84 76 68 70 71 76 93 88 78 85 90 74 64 74 79 83 71 71 58 78 79 81 78 65 50 47 50 53 58 62 59 68 70 74 87 98 96 90 95 74 50 51 65 71 75
80 83 83 83 73 78 100 95 75 73 75 63 65 72 72 74 90 99 100 97 83 94 87 87 69 68 66 56 49 56 55 54 58 66 61 53 49 52 55 59 60 68 89 98 99 99 99 88 62 63 70 75 91 91
80 80 83 77 78 75 76 76 80 74 57 61 56 64 72 79 93 100 100 84 98 84 69 58 76 66 56 55 52 53 54 53 57 66 70 69 61 62 62 62 68 91 98 99 98 95 100 94 75 76 100 100 100 99
84 79 99 99 100 100 92 67 65 67 70 71 78 72 87 93 98 96 77 89 77 65 56 62 53 51 51 50 49 51 52 54 56 58 63 64 71 72 73 75 89 98 99 100 100 100 99 84 94 98 100 100 98 96
94 97 100 100 100 100 98 70 85 73 88 81 75 82 79 83 73 63 82 61 61 48 43 43 46 50 49 48 52 52 54 59 62 65 73 74 72 80 84 88 98 100 100 99 88 92 100 88 94 98 100 99 98 95
96 100 100 100 100 96 100 95 77 77 80 86 77 74 62 70 74 85 75 73 61 48 46 44 44 45 45 48 53 54 55 58 63 68 78 84 85 82 85 96 99 99 87 77 96 98 99 100 93 94 95 97 92 88
99 99 100 96 92 94 88 86 84 80 82 77 74 69 71 85 78 68 69 61 74 76 67 57 54 49 59 63 64 65 73 74 94 96 83 85 97 98 99 98 89 82 94 100 100 100 100 100 100 99 97 91 86 83
95 96 92 79 82 83 72 72 71 71 70 69 71 64 97 78 75 72 47 76 99 72 98 100 96 74 60 57 62 65 74 79 93 95 87 90 99 100 100 100 95 95 96 99 100 100 100 98 98 92 93 87 78 88
92 80 80 54 56 63 81 87 72 72 70 65 64 71 82 84 68 48 42 45 53 70 61 68 67 67 68 67 68 78 85 88 96 93 93 80 73 76 93 100 98 89 97 100 100 100 99 98 98 100 100 100 100 94
79 82 80 89 84 69 77 70 70 70 66 50 61 69 88 74 54 46 51 54 84 70 72 75 78 78 79 81 86 94 94 96 98 94 91 90 86 96 100 100 98 94 99 100 100 100 100 100 100 100 98 86 89 93
80 78 82 77 81 83 80 74 72 59 48 59 77 74 70 56 79 80 65 79 92 96 93 94 99 100 96 93 97 98 100 97 99 98 97 96 100 100 98 100 100 100 100 100 94 99 100 100 100 98 93 91 93 92
81 86 81 78 84 79 80 85 88 96 73 83 75 68 66 77 82 96 94 94 96 100 100 100 99 96 93 94 94 99 100 100 100 98 97 100 100 100 100 100 100 100 100 100 99 93 88 89 89 90 90 90 88 86
84 95 87 83 84 83 87 99 100 97 100 94 98 97 94 94 100 98 89 90 92 94 95 92 93 90 90 88 92 94 95 100 99 97 96 99 100 100 100 100 100 100 100 99 94 94 94 93 93 91 87 84 80 84
96 93 87 87 88 100 100 99 99 99 100 96 92 95 96 95 88 95 88 90 89 90 88 89 88 90 96 99 100 99 95 98 97 98 100 100 100 100 100 100 100 100 99 93 91 87 85 84 85 86 84 79 78 78
89 90 89 90 89 94 95 96 89 90 88 87 86 83 88 86 93 93 83 85 89 89 89 88 88 92 94 95 96 95 90 92 92 91 92 93 94 98 99 100 99 94 88 88 89 88 84 82 83 82 80 81 80 77
Wind_Speed
8 8 10 10 11 12 13 13 13 13 13 13 12 13 11 10 8 4 2 6 6 3 8 7 12 11 7 5 7 1 2 3 1 4 4 5 4 6 8 14 11 11 5 4 5 9 11 2 5 3 12 21 26 23
6 3 5 5 10 14 13 13 13 13 13 12 13 13 13 11 9 7 4 4 2 3 5 6 12 18 17 18 12 5 8 5 6 4 4 3 5 2 5 14 18 15 15 12 13 10 16 24 24 23 24 25 22 23
5 7 3 7 10 11 11 12 13 13 14 14 15 15 14 14 13 12 3 3 2 1 4 4 13 18 14 15 12 11 5 11 11 10 7 4 7 4 6 7 6 8 16 19 20 15 24 23 26 28 21 19 25 20
4 3 5 3 5 9 13 12 12 14 14 14 16 16 16 16 16 15 4 4 2 1 3 4 12 13 15 14 17 17 18 14 13 7 3 4 3 7 6 12 15 9 6 13 24 26 26 20 21 20 18 23 22 22
2 2 4 5 6 3 7 10 13 14 14 15 16 15 16 18 17 10 6 4 5 4 3 3 5 11 15 14 17 17 17 16 9 3 3 6 3 5 7 10 11 9 18 14 14 26 22 28 21 22 19 18 23 24
5 3 4 6 7 7 3 7 9 10 13 15 16 17 17 17 13 3 3 3 6 3 3 2 3 6 15 16 21 18 14 12 10 4 4 4 5 4 6 12 7 11 14 20 22 25 28 25 20 17 20 22 17 19
6 6 6 8 8 10 11 12 11 7 7 9 10 12 12 15 7 3 3 2 2 5 3 4 4 2 2 5 12 11 12 7 5 5 5 4 6 5 5 22 29 21 22 24 24 25 21 21 19 22 17 18 19 20
9 8 9 8 8 7 7 9 11 13 14 15 15 13 13 14 8 3 3 4 4 3 3 2 3 2 2 1 2 2 1 2 2 3 1 3 5 5 9 20 24 22 22 21 18 16 17 20 18 16 17 18 20 18
10 11 12 11 10 8 7 6 9 11 13 15 14 11 5 3 2 2 1 4 2 1 3 2 2 1 3 2 2 1 1 3 3 4 5 6 7 10 16 21 22 24 22 18 18 17 14 12 15 18 20 21 17 15
12 13 13 11 11 11 10 10 9 10 12 11 3 3 2 1 2 4 2 1 2 1 2 3 1 2 3 2 0 2 1 3 4 7 5 5 13 22 25 24 22 13 13 14 11 11 13 15 16 19 18 13 11 6
14 13 13 13 12 12 10 11 11 10 4 2 2 2 3 1 3 1 2 2 3 3 4 3 6 4 2 2 3 4 2 3 4 5 5 5 6 11 7 9 11 10 8 6 8 11 14 16 17 15 10 10 7 6
15 14 13 12 12 12 11 10 5 3 2 4 5 4 2 1 2 2 4 3 4 4 5 3 3 3 2 2 3 3 4 4 7 3 2 5 1 6 6 5 6 7 7 10 11 14 17 18 14 9 7 5 6 5
14 13 12 12 11 11 10 8 4 11 8 3 3 2 1 2 5 6 7 4 3 2 2 1 3 1 0 2 3 2 5 4 1 4 4 4 5 4 4 6 9 12 7 5 12 15 16 15 10 2 6 5 3 4
12 13 13 11 11 11 10 10 7 3 0 2 2 4 5 6 6 5 3 4 3 3 3 3 1 1 1 3 2 5 4 2 5 5 8 4 7 7 8 8 9 11 6 7 12 14 10 7 6 3 3 2 2 4
13 12 12 11 11 11 11 8 2 1 3 3 3 5 7 3 1 4 3 3 3 3 2 2 1 1 3 4 4 5 5 7 6 7 5 6 3 7 10 10 12 9 8 10 14 10 7 6 5 5 3 4 3 3
15 12 6 13 11 12 12 8 4 3 1 1 3 3 3 1 3 2 2 2 3 3 2 0 2 3 6 5 6 8 6 11 10 5 7 10 11 12 13 11 10 13 14 14 13 11 8 6 6 5 5 5 4 2
13 4 15 13 13 12 8 2 3 2 2 3 3 2 2 2 2 2 3 4 5 4 3 3 5 10 3 6 7 7 10 11 9 9 9 13 14 14 11 12 12 11 13 14 13 12 11 6 4 5 7 7 5 3
3 12 17 16 13 9 3 1 2 2 5 5 3 4 4 4 3 3 3 3 5 4 5 6 4 9 8 14 14 10 10 10 10 10 11 14 14 14 13 15 15 14 15 13 8 10 6 6 7 7 7 5 4 4
7 12 16 16 6 4 3 0 2 3 6 2 4 4 5 4 6 7 4 5 7 7 3 3 8 9 11 11 11 11 10 10 12 13 13 14 13 14 14 13 12 14 13 11 9 6 6 8 7 6 4 4 4 3
9 14 15 12 8 3 2 2 2 4 3 4 5 6 7 4 3 3 5 6 7 4 7 7 11 12 12 12 12 12 12 12 12 13 14 12 11 14 14 13 11 12 10 9 5 4 4 5 5 4 3 4 4 4
7 11 14 11 4 2 1 3 4 3 3 4 4 6 5 4 6 6 6 8 7 6 11 12 14 14 15 14 12 12 14 14 14 13 14 14 12 11 12 12 11 7 7 5 6 6 7 6 5 4 3 3 2 2
3 9 3 2 2 3 4 6 3 3 3 2 1 4 5 7 8 7 6 6 7 12 13 12 12 13 13 15 13 15 15 17 16 14 15 15 14 11 10 8 5 7 6 6 5 5 5 5 3 4 4 4 4 3
9 4 2 3 5 6 3 5 7 6 5 5 4 4 4 4 4 1 5 8 10 11 11 11 13 13 13 15 15 16 17 16 13 12 12 11 12 10 8 7 7 7 5 5 6 4 4 5 5 5 4 5 4 4
5 4 5 6 8 4 5 6 5 3 4 4 5 8 9 6 4 5 10 11 11 10 11 14 11 10 10 13 11 12 11 8 10 10 9 10 10 11 8 7 5 6 6 5 4 4 4 5 6 6 6 5 6 6
5 7 6 7 6 6 7 6 6 6 7 9 11 9 3 3 5 9 15 13 9 9 9 10 9 9 9 10 9 10 8 5 6 8 9 8 9 7 5 4 5 5 3 4 5 6 6 5 6 6 7 6 7 7
9 8 10 8 7 7 8 6 8 11 10 12 7 3 1 4 7 9 7 6 5 6 5 7 7 7 9 10 11 10 6 4 6 9 10 7 5 4 4 4 5 5 6 5 6 7 7 7 7 9 7 8 8 5
6 8 6 6 5 5 5 1 4 6 8 7 5 7 5 7 8 8 7 7 6 5 4 5 7 8 9 9 8 7 4 5 7 7 8 8 7 6 5 4 6 2 7 7 6 7 8 9 8 7 6 5 4 4
7 5 13 9 6 8 13 11 8 8 8 7 8 10 6 8 8 5 3 2 2 3 4 4 5 6 8 8 7 6 7 5 5 6 6 6 5 4 3 1 2 0 4 4 5 5 6 6 7 6 6 6 4 4
7 6 5 11 13 8 9 11 13 10 8 7 11 14 14 9 7 6 5 1 2 4 5 6 6 4 6 7 6 5 5 5 7 10 11 8 5 5 4 3 3 3 4 5 3 3 5 5 4 4 5 3 1 1
12 8 12 15 10 13 12 7 9 6 6 8 10 12 12 11 10 2 2 4 5 6 5 4 6 6 7 7 7 6 5 4 5 7 8 7 4 0 5 5 4 4 4 5 7 8 9 8 7 5 4 3 3 4
2 5 9 13 18 16 13 4 1 2 3 6 5 9 12 9 1 2 3 3 4 5 5 6 5 5 6 6 5 5 4 2 3 6 6 6 5 3 3 4 4 4 4 5 6 5 5 4 3 3 3 4 4 4
6 8 6 7 7 4 3 4 4 5 5 7 8 6 4 3 7 4 2 2 3 4 0 3 4 4 4 3 2 2 5 4 5 5 6 4 4 5 4 4 4 4 4 4 3 2 3 4 2 3 3 4 4 4
9 10 11 8 6 6 7 6 6 5 6 5 6 8 6 4 3 4 3 3 2 2 3 4 4 4 3 4 4 4 5 6 9 12 13 14 13 8 4 3 3 3 3 2 2 1 2 3 4 3 3 1 2 1
Wind_Direction
175 189 199 198 203 205 205 209 210 212 205 201 196 189 191 189 205 220 252 205 240 228 259 223 247 245 232 255 252 205 256 241 96 191 218 231 238 253 271 269 283 279 258 214 225 235 277 253 276 283 274 304 303 315
89 165 214 221 219 216 208 208 207 209 213 204 200 198 187 188 188 201 251 214 203 223 288 325 254 243 257 262 262 232 231 215 198 221 215 222 241 234 256 274 270 268 244 261 240 258 283 307 308 307 306 302 335 310
79 84 129 216 221 215 214 215 213 210 210 203 199 201 190 194 191 198 246 152 124 35 274 238 241 245 241 250 256 252 253 248 257 247 279 212 231 228 257 257 231 246 251 258 270 268 274 296 300 292 313 316 314 316
61 73 64 29 238 221 215 212 214 213 210 205 201 199 196 188 187 195 219 204 175 111 201 248 247 252 253 244 236 241 250 254 257 270 218 206 217 193 241 257 260 258 240 256 268 275 291 278 279 312 310 294 320 324
174 91 72 52 13 311 237 222 220 213 212 213 208 196 197 196 190 195 222 235 220 219 220 236 317 268 250 240 233 230 236 239 244 229 224 239 224 231 251 262 249 226 251 258 271 281 284 295 304 318 318 324 322 316
197 164 79 77 66 55 60 222 218 216 211 210 204 198 195 194 171 107 284 191 223 172 247 273 347 231 240 227 222 223 228 237 230 209 215 217 254 213 254 269 282 266 264 260 266 270 284 297 308 317 328 319 326 325
180 150 134 111 96 82 78 79 85 116 158 187 191 195 190 172 156 172 192 26 161 163 107 289 282 323 307 280 241 247 233 222 229 243 228 243 236 205 248 268 279 281 279 275 272 274 296 307 315 321 319 328 327 325
187 154 148 139 126 112 98 96 99 95 97 99 99 99 114 117 109 89 350 16 52 92 111 224 264 306 227 170 246 338 298 15 237 252 304 220 258 191 251 264 278 285 287 295 306 317 314 325 322 325 330 332 332 339
189 154 143 144 136 126 118 118 113 113 110 109 104 109 79 50 95 122 107 40 50 105 175 179 242 139 203 126 16 234 309 243 276 236 219 248 243 233 260 278 287 296 305 333 328 326 325 327 323 329 333 336 343 347
173 155 146 145 140 135 131 114 109 123 128 137 85 86 113 157 92 156 108 112 56 337 50 223 209 211 248 158 9 305 201 234 238 229 230 231 252 263 270 278 286 335 336 333 313 331 334 327 326 330 330 341 339 328
156 155 145 140 138 134 127 124 122 123 201 140 101 87 84 48 188 66 156 211 162 215 189 218 213 198 169 192 200 208 234 216 248 249 223 232 245 256 334 342 345 350 344 336 339 334 327 319 319 315 319 335 322 309
137 138 143 139 143 137 135 134 145 240 43 59 97 116 120 150 103 221 194 190 210 230 169 160 178 216 104 303 236 189 237 206 238 18 262 251 164 15 9 1 326 316 325 336 339 325 322 314 311 302 305 292 281 309
137 139 139 147 145 142 135 125 92 108 167 82 52 83 157 109 197 215 187 216 184 129 62 122 103 65 159 24 262 251 249 236 348 222 241 280 210 172 355 340 329 323 336 319 311 314 309 302 312 308 282 281 279 261
133 138 146 144 140 136 132 128 127 154 41 74 155 184 224 185 230 185 232 63 76 94 108 82 92 303 192 218 236 267 259 283 239 243 257 286 61 10 347 345 320 311 325 276 285 287 276 264 259 253 254 270 263 267
139 131 132 134 133 131 130 124 166 143 111 157 180 213 214 224 60 63 79 128 122 161 175 175 196 267 218 247 237 264 242 234 232 260 295 352 11 313 324 318 315 312 276 270 275 279 256 245 235 255 213 232 237 251
136 130 156 142 142 135 137 158 174 98 23 182 239 242 116 173 176 206 197 200 190 131 96 357 229 237 233 224 211 223 250 254 262 309 323 321 328 321 316 312 303 305 300 294 285 278 265 225 214 220 216 214 211 213
175 154 153 148 145 149 190 132 128 114 197 218 212 265 274 15 355 140 175 202 134 157 223 186 222 224 281 233 225 233 249 273 297 308 308 308 313 306 304 306 300 295 296 287 280 281 275 252 201 209 221 208 190 188
175 138 150 148 149 137 139 13 110 176 230 221 223 193 207 247 260 220 227 195 176 222 228 226 268 236 232 249 253 266 280 299 305 295 298 297 295 304 302 297 297 297 299 298 296 278 250 211 206 221 225 170 171 196
145 147 159 159 142 114 127 226 247 247 224 226 231 247 250 245 235 253 269 221 226 252 252 224 235 243 243 258 269 279 283 282 282 289 286 292 297 291 285 287 286 286 299 289 280 245 228 203 218 231 216 179 222 195
106 141 158 167 192 123 149 147 248 265 249 211 211 231 213 229 225 225 225 224 222 221 220 229 246 258 269 270 269 275 283 286 288 288 287 287 287 293 293 294 291 305 293 277 231 202 194 200 213 236 224 207 203 214
163 152 158 171 203 279 270 171 205 240 253 234 225 233 241 225 238 231 235 217 222 222 240 241 247 251 256 264 272 278 279 280 279 278 284 287 286 286 291 286 294 280 272 244 225 204 201 203 213 194 169 184 131 182
142 136 95 107 176 180 251 198 241 161 209 244 194 223 244 243 245 229 221 230 242 236 237 250 258 265 267 271 282 284 284 283 282 281 275 277 278 278 279 276 270 261 238 227 216 207 186 215 164 175 198 174 186 187
100 112 135 147 200 216 227 196 197 192 222 199 202 225 221 223 235 188 240 235 243 246 260 265 269 272 279 284 285 284 282 284 278 275 278 279 281 283 281 266 245 239 218 200 206 211 194 177 174 193 180 177 195 207
100 177 196 193 205 220 145 185 202 218 224 217 224 245 257 241 176 230 258 255 263 268 266 271 269 269 272 276 276 280 281 288 283 278 278 276 272 272 263 249 215 214 217 231 193 202 171 190 183 189 192 195 211 226
193 186 218 198 191 177 193 190 198 213 231 211 240 249 225 177 232 256 265 274 274 273 275 279 275 265 262 270 284 290 288 280 269 279 288 271 261 267 242 206 224 225 166 178 192 187 186 177 180 193 197 209 216 228
218 185 199 204 181 201 194 218 208 224 239 248 234 246 62 243 242 249 255 267 256 258 237 233 238 246 262 275 284 289 312 323 276 278 279 277 250 246 237 209 216 221 204 198 186 191 187 183 195 204 205 209 223 239
222 204 198 224 209 182 232 225 258 217 221 228 225 215 201 228 244 246 259 252 251 250 246 239 239 259 277 291 294 298 311 289 269 266 293 294 290 275 246 232 231 217 168 185 188 200 196 194 196 193 204 205 213 217
223 232 215 186 217 220 236 238 221 227 233 233 220 223 217 222 245 265 263 15 298 285 257 258 258 264 275 282 288 298 295 282 272 274 274 268 265 256 258 231 64 344 131 159 194 195 194 185 186 187 196 216 212 173
230 222 231 232 216 216 228 233 234 230 231 232 233 234 239 247 270 278 284 283 328 275 266 264 265 261 275 277 268 254 263 275 271 273 269 261 228 217 198 208 183 180 154 154 155 178 170 163 153 184 200 211 207 187
236 209 228 231 220 233 227 208 249 251 246 259 252 260 265 266 267 143 229 238 245 251 265 282 284 281 279 286 290 280 212 218 260 268 279 283 324 105 168 177 185 168 153 151 139 117 107 109 114 130 156 183 216 221
275 202 235 238 243 246 256 248 293 290 251 250 248 248 256 277 211 189 234 245 262 265 261 261 270 278 277 286 298 308 310 116 327 309 306 294 290 229 148 121 115 119 127 129 136 148 157 169 184 180 205 231 224 239
197 218 224 235 247 186 158 214 225 227 224 222 235 223 210 228 257 137 89 292 242 245 302 299 287 320 354 329 348 41 20 14 9 360 1 18 58 82 93 104 110 113 117 122 127 149 196 235 225 221 230 226 225 226
239 234 237 246 234 221 192 209 219 242 217 234 239 232 213 231 267 85 111 26 353 351 328 310 303 313 16 27 35 59 60 57 46 40 36 34 33 39 60 72 84 97 119 109 116 107 209 257 247 220 220 220 157 229